Lid_Strength_Index
1 3 3 1 2 2 3 3 3 5 5 5 4 4 5 5 6 6 7 8 8 9
2 2 2 1 1 3 3 4 5 5 6 4 4 5 5 6 6 6 8 9 9 10
1 1 1 1 2 3 3 5 6 6 5 4 4 5 5 6 6 7 8 8 10 11
2 1 1 3 4 4 5 6 6 5 4 5 5 5 6 6 6 8 9 10 11 11
2 2 4 4 5 5 6 6 6 4 5 4 5 5 6 6 7 8 9 11 11 11
3 4 4 5 5 6 6 6 6 6 6 5 5 5 6 6 8 9 10 11 11 11
4 4 5 6 6 7 7 7 8 7 7 7 6 6 7 7 8 9 10 10 10 10
5 6 7 8 8 8 9 9 9 9 9 9 7 7 9 10 11 12 12 11 11 10
7 8 9 10 11 11 12 12 10 10 10 9 9 8 8 11 12 12 12 13 12 11
8 9 10 11 12 14 14 12 12 12 10 10 9 9 10 10 13 13 14 13 13 11
10 11 12 14 14 15 13 13 13 13 12 11 11 10 11 11 13 13 13 12 12 12
11 12 14 15 14 14 14 15 14 14 13 13 13 11 11 12 13 13 13 12 10 12
12 14 15 15 14 14 15 14 14 14 14 12 14 11 12 12 13 14 13 13 12 10
13 14 13 14 14 15 15 15 15 16 16 15 14 13 11 11 14 13 13 14 14 13